Hourly Data Report for October 18, 2014

All times are specified in Local Standard Time (LST). Add 1 hour to adjust for Daylight Saving Time where and when it is observed.

GJOA HAVEN A
NUNAVUT

68°38'08.000" N
95°51'01.000" W
46.90 m
2302337
71597
YHK

Download Data

Hourly Data (October 2014)
Hourly Data Report for October 18, 2014
Temp Definition
°C
Dew Point Temp Definition
°C
Rel Hum Definition
%
Wind Dir Definition
10's deg

Wind Spd Definition
km/h
Visibility Definition
km
Stn Press Definition
kPa
Hmdx Definition


Wind Chill Definition


Weather Definition


TIME
00:00 Legend Double Dagger -8.0 -8.4 97 21 24 16.1 101.51   -16 LegendNANA
01:00 Legend Double Dagger -8.3 -8.8 96 19 26 16.1 101.46   -17 LegendNANA
02:00 Legend Double Dagger -8.0 -8.4 97 19 26 3.6 101.39   -16 Fog
03:00 Legend Double Dagger -7.8 -8.1 98 19 22 1.6 101.31   -15 Fog
04:00 Legend Double Dagger -8.0 -8.3 98 18 28 8.1 101.20   -17 Fog
05:00 Legend Double Dagger -8.6 -9.1 96 17 30 16.1 101.12   -18 LegendNANA
06:00 Legend Double Dagger -8.6 -9.0 97 17 30 2.0 101.05   -18 Fog
07:00 Legend Double Dagger -8.8 -9.3 96 17 28 16.1 100.99   -18 LegendNANA
08:00 Legend Double Dagger -8.9 -9.5 96 16 30 16.1 100.88   -18 LegendNANA
09:00 Legend Double Dagger -8.7 -9.4 95 16 32 16.1 100.81   -18 LegendNANA
10:00 Legend Double Dagger -8.9 -9.6 95 16 32 16.1 100.74   -18 LegendNANA
11:00 Legend Double Dagger -8.3 -9.0 95 16 28 16.1 100.68   -17 LegendNANA
12:00 Legend Double Dagger -7.5 -8.4 93 16 32 16.1 100.58   -17 LegendNANA
13:00 Legend Double Dagger -7.5 -8.4 93 15 37 2.8 100.51   -17 Snow
14:00 Legend Double Dagger -6.9 -7.5 96 15 35 1.6 100.41   -16 Snow
15:00 Legend Double Dagger -6.3 -6.9 96 16 37 0.8 100.34   -16 Moderate Snow
16:00 Legend Double Dagger -6.3 -7.0 95 16 39 0.8 100.29   -16 Moderate Snow
17:00 Legend Double Dagger -6.2 -7.0 94 15 35 2.0 100.23   -15 Snow
18:00 Legend Double Dagger -5.9 -6.7 94 15 37 2.8 100.16   -15 Snow
19:00 Legend Double Dagger -5.5 -6.2 95 15 35 4.0 100.07   -14 Snow
20:00 Legend Double Dagger -5.0 -5.5 96 16 35 2.4 100.00   -14 Snow
21:00 Legend Double Dagger -4.7 -5.2 96 15 30 2.4 99.93   -13 Snow
22:00 Legend Double Dagger -4.5 -4.9 97 16 28 4.8 99.87   -12 Snow
23:00 Legend Double Dagger -4.0 -4.3 98 15 24 4.8 99.82   -11 Snow

Notes on Data Quality.

Legend

  • E = Estimated
  • M = Missing
  • NA = Not Available
  • ‡ = Partner data that is not subject to review by the National Climate Archives
Date modified: